Spokane Fairchild, WA

8:47 AM PDT on July 20, 2017 (GMT -0700)
Fairchild Air Force Base

Weather History for KSKA - April, 2013

Change the Weather History Date:

Monday, April 15, 2013

  Actual Average Record
Temperature  
Mean Temperature 38 °F -  
Max Temperature 46 °F 53 °F 59 °F (1997)
Min Temperature 31 °F 33 °F 26 °F (2015)
Degree Days  
Heating Degree Days 26    
Moisture  
Dew Point 19 °F    
Average Humidity 46    
Maximum Humidity 87    
Minimum Humidity 34    
Precipitation  
Precipitation 0.00 in - - ()
Sea Level Pressure  
Sea Level Pressure 29.97 in    
Wind  
Wind Speed 13 mph (NNE)    
Max Wind Speed 20 mph    
Max Gust Speed 26 mph    
Visibility 10 miles    
Events      
Averages and records for this station are not official NWS values.
T = Trace of Precipitation, MM = Missing Value Source: NWS Daily Summary

Daily Weather History Graph

Daily Weather History Graph

Search for Another Location

Airport or City:

Trip Planner

Search our weather history database for the weather conditions in past years. The results will help you decide how hot, cold, wet, or windy it might be!

Date:

Astronomy

Apr. 15, 2013 Rise Set
Actual Time 6:01 AM PDT 7:40 PM PDT
Civil Twilight 5:28 AM PDT 8:13 PM PDT
Nautical Twilight 4:49 AM PDT 8:53 PM PDT
Astronomical Twilight 4:06 AM PDT 9:36 PM PDT
Moon 9:18 AM PDT (4/15) 12:09 AM PDT (4/15)
Length of Visible Light 14h 44m
Length of Day
13h 39m
Waxing Crescent, 25% of the Moon is Illuminated
Apr 15
Waxing Crescent
Apr 18
First Quarter
Apr 25
Full
May 2
Last Quarter
May 9
New

Hourly Weather History & Observations

Time (PDT) Temp. Windchill Dew Point Humidity Pressure Visibility Wind Dir Wind Speed Gust Speed Precip Events Conditions
12:58 AM 31.5 °F 23.5 °F 27.9 °F 87% 29.91 in 10.0 mi North 9.2 mph - N/A   Mostly Cloudy
1:58 AM 32.7 °F 25.7 °F 27.3 °F 81% 29.91 in 10.0 mi NNE 8.1 mph - N/A   Overcast
2:58 AM 32.0 °F 26.4 °F 25.9 °F 78% 29.91 in 10.0 mi NNE 5.8 mph - N/A   Clear
3:58 AM 31.5 °F 25.8 °F 23.0 °F 71% 29.92 in 10.0 mi NNE 5.8 mph - N/A   Mostly Cloudy
4:58 AM 31.3 °F 23.9 °F 20.3 °F 64% 29.93 in 10.0 mi NNE 8.1 mph - N/A   Partly Cloudy
5:58 AM 31.1 °F 22.4 °F 18.5 °F 60% 29.94 in 10.0 mi North 10.4 mph - N/A   Mostly Cloudy
6:58 AM 31.3 °F 22.1 °F 17.8 °F 57% 29.95 in 10.0 mi North 11.5 mph - N/A   Overcast
7:58 AM 33.1 °F 23.9 °F 18.3 °F 55% 29.97 in 10.0 mi North 12.7 mph - N/A   Overcast
8:26 AM 35.6 °F 26.2 °F 19.4 °F 52% 29.92 in 10.0 mi NNE 15.0 mph - N/A   Overcast
8:28 AM 35.6 °F 26.2 °F 19.4 °F 52% 29.92 in 10.0 mi NNE 15.0 mph - N/A   Overcast
8:34 AM 35.6 °F 25.9 °F 19.4 °F 52% 29.92 in 10.0 mi NNE 16.1 mph - N/A   Overcast
8:36 AM 35.6 °F 25.9 °F 19.4 °F 52% 29.92 in 10.0 mi NNE 16.1 mph - N/A   Overcast
8:39 AM 35.6 °F 25.5 °F 19.4 °F 52% 29.92 in 10.0 mi NNE 17.3 mph - N/A   Overcast
8:58 AM 36.1 °F 26.9 °F 18.7 °F 49% 29.98 in 10.0 mi NNE 15.0 mph - 0.00 in   Mostly Cloudy
9:05 AM 37.4 °F 28.5 °F 17.6 °F 45% 29.93 in 10.0 mi NNE 15.0 mph - N/A   Mostly Cloudy
9:13 AM 37.4 °F 27.5 °F 17.6 °F 45% 29.93 in 10.0 mi NNE 18.4 mph - N/A   Mostly Cloudy
9:20 AM 37.4 °F 28.5 °F 19.4 °F 48% 29.93 in 10.0 mi NE 15.0 mph - N/A   Mostly Cloudy
9:26 AM 37.4 °F 27.5 °F 19.4 °F 48% 29.93 in 10.0 mi NNE 18.4 mph - N/A   Mostly Cloudy
9:36 AM 37.4 °F 27.8 °F 19.4 °F 48% 29.93 in 10.0 mi NNE 17.3 mph 23.0 mph N/A   Mostly Cloudy
9:51 AM 39.2 °F 30.2 °F 19.4 °F 45% 29.93 in 10.0 mi NNE 17.3 mph 23.0 mph N/A   Scattered Clouds
9:56 AM 39.2 °F 30.2 °F 19.4 °F 45% 29.93 in 10.0 mi NNE 17.3 mph 23.0 mph N/A   Scattered Clouds
9:58 AM 38.8 °F 30.0 °F 18.7 °F 44% 29.99 in 10.0 mi NNE 16.1 mph - 0.00 in   Scattered Clouds
10:20 AM 39.2 °F 30.8 °F 19.4 °F 45% 29.93 in 10.0 mi NE 15.0 mph - N/A   Clear
10:30 AM 39.2 °F 30.5 °F 19.4 °F 45% 29.94 in 10.0 mi North 16.1 mph - N/A   Clear
10:46 AM 41.0 °F 32.8 °F 19.4 °F 42% 29.94 in 10.0 mi NNE 16.1 mph - N/A   Scattered Clouds
10:54 AM 41.0 °F 33.5 °F 19.4 °F 42% 29.94 in 10.0 mi North 13.8 mph 20.7 mph N/A   Scattered Clouds
10:58 AM 41.0 °F 32.8 °F 19.4 °F 42% 30.00 in 10.0 mi North 16.1 mph 20.7 mph 0.00 in   Scattered Clouds
11:02 AM 41.0 °F 31.9 °F 19.4 °F 42% 29.94 in 10.0 mi North 19.6 mph - N/A   Mostly Cloudy
11:11 AM 41.0 °F 33.1 °F 19.4 °F 42% 29.94 in 10.0 mi North 15.0 mph 20.7 mph N/A   Scattered Clouds
11:20 AM 41.0 °F 32.2 °F 19.4 °F 42% 29.94 in 10.0 mi NNE 18.4 mph - N/A   Scattered Clouds
11:29 AM 41.0 °F 32.8 °F 19.4 °F 42% 29.94 in 10.0 mi NNE 16.1 mph - N/A   Partly Cloudy
11:50 AM 42.8 °F 34.8 °F 19.4 °F 39% 29.94 in 10.0 mi NNE 17.3 mph 23.0 mph N/A   Clear
11:58 AM 41.9 °F 34.0 °F 19.4 °F 41% 30.00 in 10.0 mi NNE 16.1 mph 23.0 mph 0.00 in   Clear
12:16 PM 42.8 °F 36.2 °F 21.2 °F 42% 29.94 in 10.0 mi NNE 12.7 mph 20.7 mph N/A   Clear
12:18 PM 42.8 °F 34.5 °F 19.4 °F 39% 29.94 in 10.0 mi NE 18.4 mph 21.9 mph N/A   Clear
12:30 PM 42.8 °F 35.8 °F 21.2 °F 42% 29.94 in 10.0 mi NE 13.8 mph - N/A   Scattered Clouds
12:58 PM 43.3 °F 38.6 °F 20.5 °F 40% 30.00 in 10.0 mi NE 8.1 mph - 0.00 in   Partly Cloudy
1:12 PM 42.8 °F 35.8 °F 21.2 °F 42% 29.94 in 10.0 mi NNE 13.8 mph 21.9 mph N/A   Partly Cloudy
1:21 PM 44.6 °F 37.4 °F 21.2 °F 39% 29.94 in 10.0 mi North 16.1 mph 18.4 mph N/A   Scattered Clouds
1:58 PM 44.2 °F 38.4 °F 20.7 °F 39% 30.00 in 10.0 mi NNE 11.5 mph - 0.00 in   Mostly Cloudy
2:22 PM 46.4 °F 40.1 °F 21.2 °F 37% 29.95 in 10.0 mi NNE 15.0 mph 21.9 mph N/A   Mostly Cloudy
2:58 PM 45.3 °F 38.4 °F 19.9 °F 36% 30.00 in 10.0 mi North 16.1 mph 19.6 mph N/A   Mostly Cloudy
3:56 PM 44.6 °F 38.1 °F 17.6 °F 34% 29.95 in 10.0 mi NNE 13.8 mph 21.9 mph N/A   Overcast
3:58 PM 45.0 °F 37.6 °F 18.3 °F 35% 30.00 in 10.0 mi NNE 17.3 mph 26.5 mph N/A   Overcast
4:58 PM 44.6 °F 37.4 °F 18.9 °F 36% 30.02 in 10.0 mi North 16.1 mph 24.2 mph N/A   Overcast
5:32 PM 44.6 °F 37.4 °F 17.6 °F 34% 29.98 in 10.0 mi North 16.1 mph - N/A   Overcast
5:35 PM 42.8 °F 35.4 °F 19.4 °F 39% 29.98 in 10.0 mi North 15.0 mph - N/A   Overcast
5:58 PM 44.4 °F 36.6 °F 18.7 °F 36% 30.04 in 10.0 mi NNE 18.4 mph - 0.00 in   Overcast
6:01 PM 44.6 °F 37.2 °F 17.6 °F 34% 29.99 in 10.0 mi North 17.3 mph 21.9 mph N/A   Overcast
6:10 PM 42.8 °F 36.2 °F 17.6 °F 36% 29.99 in 10.0 mi North 12.7 mph - N/A   Overcast
6:41 PM 42.8 °F 35.1 °F 17.6 °F 36% 29.99 in 10.0 mi North 16.1 mph 23.0 mph N/A   Mostly Cloudy
6:46 PM 42.8 °F 35.1 °F 17.6 °F 36% 30.00 in 10.0 mi North 16.1 mph - N/A   Mostly Cloudy
6:58 PM 41.7 °F 34.8 °F 17.2 °F 37% 30.06 in 10.0 mi North 12.7 mph 20.7 mph 0.00 in   Mostly Cloudy
7:58 PM 37.9 °F 31.5 °F 17.2 °F 43% 30.09 in 10.0 mi North 9.2 mph - N/A   Clear
8:58 PM 35.4 °F 28.4 °F 18.3 °F 50% 30.12 in 10.0 mi North 9.2 mph - N/A   Clear
9:39 PM 35.6 °F 28.0 °F 17.6 °F 48% 30.06 in 10.0 mi North 10.4 mph - N/A   Light Drizzle
9:48 PM 33.8 °F 25.8 °F 17.6 °F 52% 30.06 in 10.0 mi North 10.4 mph - N/A   Clear
9:58 PM 34.3 °F 25.9 °F 17.4 °F 50% 30.12 in 10.0 mi North 11.5 mph - 0.00 in   Clear
10:58 PM 34.2 °F 25.7 °F 15.6 °F 47% 30.13 in 10.0 mi North 11.5 mph - N/A   Clear
11:58 PM 33.1 °F 24.4 °F 15.1 °F 48% 30.14 in 10.0 mi North 11.5 mph - N/A   Clear